Find Starlink 11190

NORAD ID: 60911 Int'l Des: 2024-154 Owner: SPXS Country: US Constellation: starlink operational
LEOCIRCULAR

Current View

Loading 3D Globe...

About Starlink 11190

Starlink 11190 (NORAD 60911) is a starlink constellation satellite (v2 mini d2c) launched Aug 31, 2024 by SPXS of US. It operates in LEO, CIRCULAR orbit with a mass of 960.00 kg.

About Starlink 11190

Description loading...

Upcoming Passes

Passes for default location (London). Set your location on the main map for personalized predictions.

Altitude History

Loading altitude history...

Two-Line Element Set

1 60911U 24154J 26169.79408855 .00000146 00000-0 60616-5 0 9998
2 60911 53.1604 352.8768 0001204 64.1642 295.9500 15.69708861104384
Epoch: Jun 18, 2026 • Age: 27 hours

Current Status

Altitude 360.6 km
Velocity 7.70 km/s
Sub-Earth Point 25.13°N, 86.11°W
Launch Date Aug 31, 2024
Age 1.7 years
Type internet

Technical Details

Classification Payload
Mass 960.00 kg
Dry Mass 910.00 kg
Total Mass 960.00 kg
Length 0.30 m
Diameter 4.10 m
Span 29.00 m
Shape Box + pan
Manufacturer SPXS
Bus Type Starlink V2MD
Phase Status In Orbit
Owner/State SPXS/US

Most Searched